Regional Weather Roundup
Issued by NWS Albany, NY

Current Version | Previous Version | Graphics & Text | Print | Product List | Glossary Off
Versions: 1 2 3 4 5 6 7 8 9 10 11 12 13 14 15 16 17 18 19 20 21 22 23 24 25 26 27 28 29 30 31 32 33 34 35 36 37 38 39 40 41 42 43 44 45 46 47 48 49 50

000
ASUS41 KALY 162310
RWRALY

NEW YORK STATE HOURLY WEATHER ROUNDUP
NATIONAL WEATHER SERVICE ALBANY NY
600 PM EST MON JAN 16 2017

NOTE: "FAIR" INDICATES FEW OR NO CLOUDS BELOW 12,000 FEET WITH NO
SIGNIFICANT WEATHER AND/OR NO OBSTRUCTIONS TO VISIBILITY.

NYZ032-033-038>043-046>054-057>066-NYZ062>081-082-084-170000-
EAST


CITY           SKY/WX    TMP DP  RH WIND       PRES   REMARKS
ALBANY         CLOUDY    32  18  56 CALM      30.30R
GLENS FALLS    PTCLDY    33  20  58 S6        30.27S WCI  28
POUGHKEEPSIE   CLOUDY    37  19  48 S3        30.31R
NEWBURGH       MOCLDY    36  23  60 CALM      30.32S
MONTGOMERY     PTCLDY    33  22  63 SW7       30.29S WCI  27
WHITE PLAINS   CLEAR     38  20  48 CALM      30.31S
ISLIP          MOCLDY    34  28  79 SW5       30.35S WCI  30
NEW YORK CITY  MOCLDY    43  24  47 SW12      30.35R
CENTRAL PARK   CLOUDY    41  24  51 W5        30.36S
$$

NYZ005>009-017-018-044>046-055-056-170000-
CENTRAL


CITY           SKY/WX    TMP DP  RH WIND       PRES   REMARKS
FULTON         CLOUDY    32  23  69 CALM      30.28F
SYRACUSE       CLOUDY    34  19  54 CALM      30.28S
ROME           CLOUDY    30  23  75 NE3       30.30S
ELMIRA         CLOUDY    34  23  64 CALM      30.26S
BINGHAMTON     CLOUDY    34  20  56 S5        30.24S WCI  30
MONTICELLO     CLOUDY    32  19  59 W3        30.28S
$$

NYZ026>034-041>043-087-170000-
NORTH


CITY           SKY/WX    TMP DP  RH WIND       PRES   REMARKS
WATERTOWN      CLOUDY    33  26  75 S5        30.27F WCI  29
FORT DRUM      NOT AVBL
OGDENSBURG     FAIR      33  29  86 SW13G18   30.22S WCI  24
MASSENA        CLEAR     33  26  75 SW16      30.21S WCI  23
SARANAC LAKE   CLOUDY    29  13  51 SW9       30.16S WCI  20
PLATTSBURGH    CLEAR     32  19  58 S9        30.19R WCI  24
$$

NYZ001>004-010>016-019>021-085-170000-
WEST


CITY           SKY/WX    TMP DP  RH WIND       PRES   REMARKS
NIAGARA FALLS  CLOUDY    36  16  44 SW6       30.26S WCI  31
BUFFALO        CLOUDY    34  20  56 SW10      30.26F WCI  26
DUNKIRK        CLOUDY    33  27  78 NE3       30.28F
JAMESTOWN      CLOUDY    34  27  75 S5        30.23S WCI  30
WELLSVILLE     CLOUDY    41  10  28 CALM      30.24R
ROCHESTER      CLOUDY    37  19  48 CALM      30.27S
PENN YAN       CLOUDY    33  21  61 S3        30.25F
$$

             KEY
       WCI = WIND CHILL INDEX
       VSB = VISIBILITY
       HX  = HEAT INDEX
$$



USA.gov is the U.S. government's official web portal to all federal, state and local government web resources and services.